Página principal
METAR-TAF:

METAR-TAF

Aeroportos :

Brooks Field

Marshall, Michigan, Estados Unidos

latitude: 42-15-04N, longitude: 084-57-20W, altura: 287 m

Observação actual do tempo

O boletim foi feito há 21 horas e 5 minutos, às 00:15 UTC
Vento 6 kt de este
Temperatura 22°C
Humidade 78%
Pressão 1013 hPa
Visibilidade: 16.1 km
Céu limpo

METAR: KRMY 210015Z AUTO 10006KT 10SM CLR 22/18 A2990 RMK AO2 T02170179

Hora: 17:20 (21:20 UTC)


TAF: em falta

Observações e previsões do tempo de mais de 4000 aeroportos (mensagens METAR e TAF).

As estações disponíveis são os pontos amarelos e vermelhos sobre o mapa.

Mova o rato sobre o mapa para ver o nome da estação.

Depois clique no ponto para visualizar as observações e previsões meteorológicas.

Para alterar o mapa : clique nos botões verdes com uma cruz preta para aumentar o zoom; no botão verde com uma pitada de zoom; ou nas setas verdes para mapas adjacentes.


METAR-TAF: